User: anonymous   Login
Location: Newark
(45.0667°N, 7.8333°E)
Time: 15:49:29
(UTC+00:00)
Language:

QB50P2 - Orbit

View from above orbital plane
View from above orbital plane
View from above satellite
View from above satellite

Ground track
Ground track

The orbit data is extracted from the following two-line orbital elements,

1 40032U 14033Y   19321.82642018 +.00000239 +00000-0 +31678-4 0  9990
2 40032 097.8981 239.1512 0010443 277.1620 082.8409 14.88552268293355
Epoch (UTC): 17 November 2019 19:50:02
Eccentricity: 0.0010443
inclination: 97.8981°
perigee height: 595 km
apogee height: 610 km
right ascension of ascending node: 239.1512°
argument of perigee: 277.1620°
revolutions per day: 14.88552268
mean anomaly at epoch: 82.8409°
orbit number at epoch: 29335

The dashed part of the orbit path shows where the satellite is in the earth's shadow,  

DLR